Aberdeen, SD

2:55 PM CDT on April 29, 2017 (GMT -0500)
Aberdeen Regional

Weather History for KABR - May, 2014

Change the Weather History Date:

Monday, May 5, 2014

  Actual Average Record
Temperature  
Mean Temperature 52 °F 53 °F  
Max Temperature 65 °F 66 °F 92 °F (2000)
Min Temperature 38 °F 40 °F 24 °F (1944)
Degree Days  
Heating Degree Days 14 12  
Month to date heating degree days 65  
Since 1 July heating degree days 8236  
Cooling Degree Days 0 0  
Month to date cooling degree days 0 0  
Year to date cooling degree days 0 2  
Moisture  
Dew Point 35 °F    
Average Humidity 61    
Maximum Humidity 85    
Minimum Humidity 36    
Precipitation  
Precipitation 0.00 in 0.10 in 7.62 in (2007)
Month to date precipitation 0.01 0.51  
Year to date precipitation 3.26 4.54  
Sea Level Pressure  
Sea Level Pressure 29.95 in    
Wind  
Wind Speed 8 mph (ENE)    
Max Wind Speed 16 mph    
Max Gust Speed 22 mph    
Visibility 10 miles    
Events      
T = Trace of Precipitation, MM = Missing Value Source: NWS Daily Summary

Daily Weather History Graph

Daily Weather History Graph

Search for Another Location

Airport or City:

Trip Planner

Search our weather history database for the weather conditions in past years. The results will help you decide how hot, cold, wet, or windy it might be!

Date:

Astronomy

May. 05, 2014 Rise Set
Actual Time 6:16 AM CDT 8:45 PM CDT
Civil Twilight 5:42 AM CDT 9:18 PM CDT
Nautical Twilight 5:01 AM CDT 10:00 PM CDT
Astronomical Twilight 4:14 AM CDT 10:48 PM CDT
Moon 11:38 AM CDT (5/5) 1:29 AM CDT (5/5)
Length of Visible Light 15h 35m
Length of Day
14h 29m
Waxing Crescent, 37% of the Moon is Illuminated
May 5
Waxing Crescent
May 6
First Quarter
May 14
Full
May 21
Last Quarter
May 28
New

Hourly Weather History & Observations

Time (CDT) Temp. Windchill Dew Point Humidity Pressure Visibility Wind Dir Wind Speed Gust Speed Precip Events Conditions
12:53 AM 39.0 °F 32.8 °F 32.0 °F 76% 30.01 in 10.0 mi NE 9.2 mph - N/A   Overcast
1:53 AM 39.9 °F 33.4 °F 33.1 °F 77% 30.01 in 10.0 mi NE 10.4 mph - N/A   Overcast
2:53 AM 39.9 °F 33.4 °F 33.1 °F 77% 30.00 in 10.0 mi ENE 10.4 mph - N/A   Overcast
3:53 AM 39.9 °F 33.9 °F 34.0 °F 79% 30.00 in 10.0 mi NE 9.2 mph - N/A   Overcast
4:53 AM 39.9 °F 35.8 °F 34.0 °F 79% 29.99 in 10.0 mi NE 5.8 mph - N/A   Overcast
5:53 AM 39.9 °F 34.5 °F 35.1 °F 83% 30.00 in 10.0 mi North 8.1 mph - N/A   Overcast
6:53 AM 39.0 °F 35.7 °F 35.1 °F 86% 30.00 in 10.0 mi NE 4.6 mph - N/A   Overcast
7:53 AM 42.1 °F 36.1 °F 36.0 °F 79% 30.01 in 10.0 mi NNE 10.4 mph - N/A   Clear
8:53 AM 46.0 °F 41.0 °F 37.0 °F 71% 30.02 in 10.0 mi NE 10.4 mph - N/A   Partly Cloudy
9:53 AM 48.9 °F - 36.0 °F 61% 30.02 in 10.0 mi NE 4.6 mph - N/A   Clear
10:53 AM 52.0 °F - 36.0 °F 54% 30.01 in 10.0 mi Variable 4.6 mph - N/A   Clear
11:53 AM 55.0 °F - 34.0 °F 45% 30.00 in 10.0 mi ENE 8.1 mph - N/A   Clear
12:53 PM 59.0 °F - 35.6 °F 42% 29.96 in 10.0 mi ENE 6.9 mph - N/A   Clear
1:53 PM 60.1 °F - 35.1 °F 39% 29.95 in 10.0 mi Variable 5.8 mph - N/A   Clear
2:53 PM 62.1 °F - 35.1 °F 37% 29.93 in 10.0 mi East 11.5 mph 18.4 mph N/A   Clear
3:53 PM 64.0 °F - 37.0 °F 37% 29.91 in 10.0 mi East 8.1 mph 19.6 mph N/A   Clear
4:53 PM 63.0 °F - 36.0 °F 37% 29.89 in 10.0 mi East 10.4 mph - N/A   Clear
5:53 PM 62.6 °F - 37.4 °F 39% 29.86 in 10.0 mi East 12.7 mph - N/A   Clear
6:53 PM 61.0 °F - 37.0 °F 41% 29.88 in 10.0 mi East 11.5 mph - N/A   Clear
7:53 PM 60.1 °F - 37.0 °F 42% 29.88 in 10.0 mi East 10.4 mph - N/A   Clear
8:53 PM 57.0 °F - 37.9 °F 49% 29.88 in 10.0 mi East 9.2 mph - N/A   Clear
9:53 PM 50.0 °F - 37.9 °F 63% 29.90 in 10.0 mi ENE 8.1 mph - N/A   Clear
10:53 PM 51.8 °F - 37.4 °F 58% 29.87 in 10.0 mi East 12.7 mph - N/A   Clear
11:53 PM 52.0 °F - 36.0 °F 54% 29.86 in 10.0 mi ESE 13.8 mph - N/A   Clear